Weather in Chalong

Thailand     7°51′28″N   98°20′22″E
temp.,
°C
wind,
m/s
gust,
m/s
humid.,
%
clouds,
%
prec.,
mm/h
press.,
hPa
HPBL,
m
13 april, tue
tue1301:00+29ene457242 2.6 1011632
04:00+28ene6775100 2.2 1010622
07:00+28e6675100 3.1 1011623
10:00+28e44765 2.1 1012478
13:00+28ese227342 3.9 1011357
16:00+29s446823 1.4 1009712
19:00+30sw556896 1.4 1009742
22:00+28sw2371100 3.9 1012108
14 april, wed
wed1401:00+29ssw2367100 5.7 1011476
04:00+29w2267100 0.1 1010842
07:00+29w226795 0.1 1011841
10:00+29sw1167100 0.2 1013671
13:00+29w2268100 0.3 1011695
16:00+29nw4469100 2.6 1009763
19:00+29nw6670100 2.6 10101022
22:00+29nw6673100 0.0 1012931
15 april, thu
thu1501:00+28nw6674100 0.0 1011970
04:00+28nw5574100 0.0 1009857
07:00+28nnw447440 0.0 1011766
10:00+29nw337188 0.0 1012836
13:00+29wnw557295 0.0 1010808
16:00+29wnw657372 0.0 1008722
19:00+29wnw66716 0.0 1009947
22:00+29wnw777279 0.0 10111011
16 april, fri
fri1601:00+29wnw6672100 0.1 1010933
04:00+29nw6671100 0.6 1009977
07:00+28n3476100 2.2 1010610
10:00+29nnw3472100 1.1 1012464
13:00+29wsw4470100 6.3 1011433
16:00+28wsw5573100 0.1 1009605
19:00+28w4472100 0.1 1010651
22:00+29w45725 0.1 1012792
17 april, sat
sat1701:00+29wsw447266 1.9 1010817
04:00+29w3370100 0.1 1010867
07:00+29w237094 0.2 1011702
10:00+29wnw2269100 1.6 1013503
13:00+29w336895 1.9 1011706
16:00+29w3367100 2.6 1010635
19:00+29wnw4468100 2.7 1011891
22:00+29wnw447093 0.1 1013786